Flag Weather past 2 weeks in Cleveland, Ohio, U.S.A.

Now
24 °F

Broken clouds.


Feels Like: 13 °F
Forecast: 24 / 31 °F
Wind: 12 mph from Southwest

Location: Cleveland-Hopkins International Airport

Current Time: Nov 28, 2014 at 12:24:05 PM

Latest Report: Nov 28, 2014 at 11:51 AM


Visibility: 10 mi

Pressure: 30.37 "Hg

Humidity: 62%

Dew point: 13 °F

Location of ClevelandLocation

Historic Weather in Cleveland — Graph

°F

Cleveland temperature yesterday

Maximum temperature yesterday: 33 °F (at 1:51 AM)
Minimum temperature yesterday: 28 °F (at 11:51 PM)
Average temperature yesterday: 31 °F

Past Weeks' High & Low Weather Summary

 TemperatureHumidityPressure
High62 °F (Nov 24, 10:51 AM)100% (Nov 16, 11:57 PM)30.55 "Hg (Nov 16, 11:57 PM)
Low10 °F (Nov 18, 6:51 AM)47% (Nov 22, 6:51 AM)29.23 "Hg (Nov 24, 2:51 AM)
Average31 °F72%30.09 "Hg
* Reported Nov 13 10:51 AM — Nov 28 10:51 AM, Cleveland, Weather by CustomWeather, © 2014

Note: Actual official high and low records may vary slightly from our data, if they occured in-between our weather recording intervals... More about our weather records

Advertising

Cleveland weather history for previous 24 hours

 ConditionsComfort  
Time TempWeatherWind HumidityBarometerVisibility
10:51 AM
Nov 28
24 °FMostly cloudy.9 mph68%30.40 "Hg10 mi
9:51 AM21 °FLight snow. Overcast.10 mph71%30.41 "Hg8 mi
8:51 AM20 °FOvercast.9 mph71%30.40 "Hg10 mi
7:51 AM21 °FPartly sunny.7 mph71%30.39 "Hg10 mi
6:51 AM23 °FPassing clouds.12 mph65%30.39 "Hg10 mi
5:51 AM23 °FOvercast.14 mph65%30.39 "Hg10 mi
4:51 AM23 °FOvercast.14 mph63%30.37 "Hg10 mi
3:51 AM24 °FPassing clouds.12 mph62%30.36 "Hg10 mi
2:51 AM25 °FOvercast.12 mph69%30.34 "Hg10 mi
1:51 AM26 °FLight snow. Mostly cloudy.12 mph77%30.32 "Hg4 mi
12:58 AM27 °FMostly cloudy.10 mph69%30.29 "Hg9 mi
11:51 PM
Nov 27
28 °FOvercast.9 mph72%30.31 "Hg10 mi
10:51 PM29 °FLight snow. Mostly cloudy.17 mph75%30.29 "Hg9 mi
9:51 PM29 °FLight snow. Ice fog.12 mph89%30.29 "Hg3 mi
8:51 PM29 °FHeavy snow. Ice fog.10 mph93%30.27 "Hg0 mi
7:51 PM29 °FHeavy snow. Ice fog.7 mph93%30.26 "Hg0 mi
6:51 PM30 °FLight snow. Ice fog.10 mph85%30.25 "Hg6 mi
5:51 PM30 °FLight snow. Ice fog.13 mph85%30.24 "Hg1 mi
5:02 PM30 °FLight snow. Ice fog.9 mph85%30.20 "Hg3 mi
3:51 PM31 °FLight snow. Mostly cloudy.10 mph76%30.22 "Hg5 mi
2:51 PM32 °FOvercast.12 mph66%30.20 "Hg10 mi
1:51 PM32 °FPartly sunny.14 mph69%30.18 "Hg10 mi
12:51 PM31 °FOvercast.14 mph69%30.19 "Hg10 mi
Weather by CustomWeather, © 2014

See weather overviewHow to use our weather pages